User: anonymous
Location: Unspecified
(0.0000°N, 0.0000°E)
Time: 20:34:43
(UTC+02:00)
Language:

ARIANE 5 R/B - Orbit

View from above orbital plane
View from above orbital plane
View from above satellite
View from above satellite

Ground track
Ground track

The orbit data is extracted from the following two-line orbital elements,

1 27387U 02009B   14106.48540363  .00000137  00000-0  61626-4 0  1452
2 27387 098.3071 071.5074 0032140 355.8943 151.2318 14.35698431635412
Epoch (UTC): 16 April 2014 11:38:58
Eccentricity: 0.0032140
inclination: 98.3071°
perigee height: 750 km
apogee height: 796 km
right ascension of ascending node: 71.5074°
argument of perigee: 355.8943°
revolutions per day: 14.35698431
mean anomaly at epoch: 151.2318°
orbit number at epoch: 63541

The dashed part of the orbit path shows where the satellite is in the earth's shadow,  

DLR